When you browse on this site, cookies collect data to enhance your experience and personalize the content and advertising you see.
Visit our Privacy Policy to learn more. By continuing to use the site, you agree to this use of cookies and data.
  • In Deutschland
  • Länderverzeichnis
  • Für 7 Tage
  • Wassertemperatur
  • Wetterkarte
  • Widgets
  • user-avatar
    Anmelden

    Stündliche Wetter München

    Heute, 15 Oktober, Dienstag

    Zeit Temperatur Niederschläge Wind Luftdruck Luftfeuchtigkeit
    00:00 +13°C° 0 mm 1 m/S 713 mmHg 86%
    01:00 +13°C° 0 mm 2 m/S 713 mmHg 86%
    02:00 +13°C° 0 mm 2 m/S 713 mmHg 84%
    03:00 +12°C° 0 mm 1 m/S 713 mmHg 83%
    04:00 +12°C° 0 mm 1 m/S 712 mmHg 81%
    05:00 +12°C° 0 mm 1 m/S 712 mmHg 81%
    06:00 +11°C° 0 mm 1 m/S 712 mmHg 80%
    07:00 +11°C° 0 mm 1 m/S 712 mmHg 80%
    08:00 +13°C° 0 mm 1 m/S 711 mmHg 75%
    09:00 +15°C° 0 mm 1 m/S 711 mmHg 69%
    10:00 +18°C° 0 mm 1 m/S 711 mmHg 64%
    11:00 +18°C° 0 mm 2 m/S 710 mmHg 62%
    12:00 +19°C° 0 mm 2 m/S 710 mmHg 60%
    13:00 +20°C° 0 mm 2 m/S 709 mmHg 59%
    14:00 +20°C° 0 mm 2 m/S 709 mmHg 63%
    15:00 +19°C° 0 mm 2 m/S 709 mmHg 68%
    16:00 +20°C° 0 mm 1 m/S 708 mmHg 73%
    17:00 +17°C° 0 mm 4 m/S 709 mmHg 74%
    18:00 +14°C° 0 mm 6 m/S 710 mmHg 75%
    19:00 +12°C° 0 mm 8 m/S 711 mmHg 76%
    20:00 +11°C° 0.3 mm 8 m/S 712 mmHg 79%
    21:00 +10°C° 0.3 mm 8 m/S 712 mmHg 82%
    22:00 +9°C° 0.3 mm 7 m/S 713 mmHg 86%
    23:00 +8°C° 1.1 mm 7 m/S 714 mmHg 87%

    Morgen, 16 Oktober, Mittwoch

    Zeit Temperatur Niederschläge Wind Luftdruck Luftfeuchtigkeit
    00:00 +8°C° 1.1 mm 6 m/S 714 mmHg 89%
    01:00 +8°C° 1.1 mm 6 m/S 715 mmHg 90%
    02:00 +7°C° 0.1 mm 5 m/S 715 mmHg 89%
    03:00 +7°C° 0.1 mm 4 m/S 715 mmHg 88%
    04:00 +8°C° 0.1 mm 3 m/S 716 mmHg 88%
    05:00 +8°C° 0 mm 3 m/S 716 mmHg 88%
    06:00 +7°C° 0 mm 3 m/S 716 mmHg 88%
    07:00 +7°C° 0 mm 2 m/S 716 mmHg 88%
    08:00 +8°C° 0 mm 2 m/S 716 mmHg 81%
    09:00 +10°C° 0 mm 2 m/S 716 mmHg 75%
    10:00 +13°C° 0 mm 2 m/S 716 mmHg 69%
    11:00 +14°C° 0 mm 2 m/S 716 mmHg 62%
    12:00 +16°C° 0 mm 2 m/S 716 mmHg 55%
    13:00 +17°C° 0 mm 2 m/S 716 mmHg 49%
    14:00 +18°C° 0 mm 1 m/S 715 mmHg 52%
    15:00 +16°C° 0 mm 1 m/S 715 mmHg 55%
    16:00 +15°C° 0 mm 0 m/S 715 mmHg 59%
    17:00 +14°C° 0 mm 1 m/S 715 mmHg 63%
    18:00 +12°C° 0 mm 1 m/S 715 mmHg 66%
    19:00 +10°C° 0 mm 1 m/S 715 mmHg 70%
    20:00 +10°C° 0 mm 1 m/S 715 mmHg 72%
    21:00 +10°C° 0 mm 1 m/S 716 mmHg 74%
    22:00 +9°C° 0 mm 1 m/S 716 mmHg 76%
    23:00 +9°C° 0 mm 1 m/S 716 mmHg 77%

    übermorgen, 17 Oktober, Donnerstag

    Zeit Temperatur Niederschläge Wind Luftdruck Luftfeuchtigkeit
    00:00 +9°C° 0 mm 1 m/S 716 mmHg 78%
    01:00 +9°C° 0 mm 1 m/S 716 mmHg 78%
    02:00 +9°C° 0 mm 1 m/S 716 mmHg 78%
    03:00 +9°C° 0 mm 1 m/S 716 mmHg 79%
    04:00 +9°C° 0 mm 1 m/S 716 mmHg 79%
    05:00 +9°C° 0 mm 1 m/S 716 mmHg 78%
    06:00 +9°C° 0 mm 1 m/S 716 mmHg 76%
    07:00 +9°C° 0 mm 1 m/S 716 mmHg 75%
    08:00 +12°C° 0 mm 1 m/S 716 mmHg 70%
    09:00 +14°C° 0 mm 1 m/S 717 mmHg 65%
    10:00 +16°C° 0 mm 1 m/S 717 mmHg 59%
    11:00 +18°C° 0 mm 1 m/S 717 mmHg 56%
    12:00 +17°C° 0 mm 0 m/S 717 mmHg 53%
    13:00 +18°C° 0 mm 0 m/S 717 mmHg 49%
    14:00 +19°C° 0 mm 1 m/S 717 mmHg 54%
    15:00 +19°C° 0 mm 1 m/S 716 mmHg 60%
    16:00 +18°C° 0 mm 1 m/S 716 mmHg 65%
    17:00 +15°C° 0 mm 1 m/S 716 mmHg 71%
    18:00 +13°C° 0 mm 1 m/S 716 mmHg 78%
    19:00 +11°C° 0 mm 0 m/S 717 mmHg 84%
    20:00 +11°C° 0 mm 1 m/S 717 mmHg 85%
    21:00 +11°C° 0 mm 1 m/S 717 mmHg 85%
    22:00 +11°C° 0 mm 1 m/S 717 mmHg 86%
    23:00 +10°C° 0 mm 1 m/S 717 mmHg 86%

    18 Oktober, Freitag

    Zeit Temperatur Niederschläge Wind Luftdruck Luftfeuchtigkeit
    00:00 +10°C° 0 mm 1 m/S 717 mmHg 85%
    01:00 +9°C° 0 mm 0 m/S 716 mmHg 85%
    02:00 +9°C° 0 mm 0 m/S 716 mmHg 84%
    03:00 +9°C° 0 mm 0 m/S 716 mmHg 83%
    04:00 +9°C° 0 mm 0 m/S 716 mmHg 83%
    05:00 +9°C° 0 mm 0 m/S 716 mmHg 84%
    06:00 +9°C° 0 mm 0 m/S 716 mmHg 84%
    07:00 +9°C° 0 mm 0 m/S 716 mmHg 85%
    08:00 +12°C° 0 mm 1 m/S 716 mmHg 79%
    09:00 +13°C° 0 mm 1 m/S 717 mmHg 74%
    10:00 +15°C° 0 mm 1 m/S 717 mmHg 68%
    11:00 +16°C° 0 mm 1 m/S 717 mmHg 65%
    12:00 +18°C° 0 mm 1 m/S 716 mmHg 63%
    13:00 +19°C° 0 mm 1 m/S 716 mmHg 60%
    14:00 +18°C° 0 mm 1 m/S 716 mmHg 64%
    15:00 +18°C° 0 mm 1 m/S 716 mmHg 67%
    16:00 +16°C° 0 mm 0 m/S 716 mmHg 71%
    17:00 +14°C° 0 mm 0 m/S 716 mmHg 75%
    18:00 +13°C° 0 mm 0 m/S 716 mmHg 80%
    19:00 +11°C° 0 mm 0 m/S 716 mmHg 85%
    20:00 +12°C° 0 mm 1 m/S 716 mmHg 85%
    21:00 +12°C° 0 mm 1 m/S 716 mmHg 85%
    22:00 +12°C° 0 mm 1 m/S 716 mmHg 85%
    23:00 +12°C° 0 mm 1 m/S 716 mmHg 86%

    19 Oktober, Samstag

    Zeit Temperatur Niederschläge Wind Luftdruck Luftfeuchtigkeit
    00:00 +11°C° 0 mm 1 m/S 716 mmHg 87%
    01:00 +11°C° 0 mm 1 m/S 716 mmHg 88%
    02:00 +11°C° 0 mm 1 m/S 716 mmHg 89%
    03:00 +11°C° 0 mm 1 m/S 715 mmHg 90%
    04:00 +11°C° 0 mm 1 m/S 715 mmHg 91%
    05:00 +11°C° 0 mm 1 m/S 715 mmHg 92%
    06:00 +10°C° 0 mm 1 m/S 715 mmHg 92%
    07:00 +9°C° 0 mm 0 m/S 715 mmHg 92%
    08:00 +12°C° 0 mm 1 m/S 715 mmHg 86%
    09:00 +14°C° 0 mm 1 m/S 715 mmHg 80%
    10:00 +15°C° 0 mm 1 m/S 715 mmHg 73%
    11:00 +16°C° 0 mm 2 m/S 714 mmHg 71%
    12:00 +17°C° 0 mm 2 m/S 714 mmHg 68%
    13:00 +18°C° 0 mm 3 m/S 714 mmHg 66%
    14:00 +17°C° 0 mm 3 m/S 713 mmHg 69%
    15:00 +17°C° 0 mm 3 m/S 712 mmHg 72%
    16:00 +16°C° 0 mm 3 m/S 712 mmHg 76%
    17:00 +14°C° 0 mm 3 m/S 711 mmHg 81%
    18:00 +12°C° 0 mm 3 m/S 711 mmHg 86%
    19:00 +11°C° 0 mm 3 m/S 711 mmHg 91%
    20:00 +12°C° 0 mm 2 m/S 711 mmHg 90%
    21:00 +10°C° 0 mm 2 m/S 710 mmHg 90%
    22:00 +10°C° 0 mm 2 m/S 710 mmHg 90%
    23:00 +9°C° 0 mm 2 m/S 710 mmHg 88%

    20 Oktober, Sonntag

    Zeit Temperatur Niederschläge Wind Luftdruck Luftfeuchtigkeit
    00:00 +10°C° 0 mm 1 m/S 709 mmHg 87%
    01:00 +10°C° 0 mm 1 m/S 709 mmHg 85%
    02:00 +9°C° 0 mm 2 m/S 709 mmHg 85%
    03:00 +9°C° 0 mm 2 m/S 709 mmHg 85%
    04:00 +9°C° 0 mm 2 m/S 709 mmHg 84%
    05:00 +9°C° 0 mm 2 m/S 710 mmHg 87%
    06:00 +9°C° 0 mm 2 m/S 710 mmHg 89%
    07:00 +9°C° 0 mm 2 m/S 710 mmHg 91%
    08:00 +9°C° 0.5 mm 3 m/S 711 mmHg 92%
    09:00 +9°C° 0.5 mm 3 m/S 711 mmHg 92%
    10:00 +8°C° 0.5 mm 4 m/S 711 mmHg 93%
    11:00 +8°C° 1.3 mm 4 m/S 711 mmHg 92%
    12:00 +8°C° 1.3 mm 4 m/S 712 mmHg 92%
    13:00 +8°C° 1.3 mm 4 m/S 712 mmHg 91%
    14:00 +8°C° 0.5 mm 4 m/S 712 mmHg 91%
    15:00 +8°C° 0.5 mm 4 m/S 713 mmHg 91%
    16:00 +8°C° 0.5 mm 4 m/S 713 mmHg 90%
    17:00 +8°C° 0.1 mm 3 m/S 713 mmHg 90%
    18:00 +8°C° 0.1 mm 3 m/S 714 mmHg 90%
    19:00 +8°C° 0.1 mm 2 m/S 714 mmHg 90%
    20:00 +8°C° 0 mm 2 m/S 714 mmHg 89%
    21:00 +8°C° 0 mm 2 m/S 714 mmHg 88%
    22:00 +8°C° 0 mm 2 m/S 715 mmHg 86%
    23:00 +8°C° 0 mm 1 m/S 714 mmHg 87%
    Mehr zeigen